Content
SEND FEEDBACK

Daily
Averages
Monthly
Summary
United States of America

HAZELWOOD, MISSOURI


Home > North America > United States > Missouri
Elevation: 174 meters     Latitude: 38 45N     Longitude: 090 22W

WEATHER
 
SELECT A DAY
Number of Records: 196,318;   Date Range: 1/1/95 - 7/23/14
 
SHARE

PRINT THIS DATA

[ ← Previous Day ]
WEATHER ALMANAC - 11 JANUARY, 2013
[ Next Day → ]
[ °F ]   °C
Weather ElementAverageHighLow
Temperature13.4 °C17.8 °C (2:54 pm)10.6 °C (2:54 am)
Dewpoint8 °C10 °C (1:54 am)7.2 °C (3:54 pm)
Humidity71.1 %89 % (1:54 am)52 % (2:54 pm)
Barometer1009.8 hPa1011.5 hPa (7:54 am)1007.8 hPa (3:54 pm)
Wind Speed13.7 km/h24.1 km/h (1:54 pm)
Wind Gust37 km/h (1:54 pm)
Weather ElementAverage
Visibility16.1 km
Wind DirectionSSW (186.5 °)

Weather ElementTotal
Precipitation---
Heating Degree Days4.2 (Base 18.3)
Growing Degree Days4.2 (Base 10)
Averaged from 26 records on 11 January, 2013
WEATHER CONDITIONS BREAKOUT
WIND DIRECTION BREAKOUT
WEATHER BY HOUR - 11 JANUARY, 2013
[ °F ]   °C
Local TimeTemperatureDewpointHumidityBarometerVisibilityWind DirectionWind SpeedGust SpeedPrecipitationEventsConditions
1:54 AM11.7 °C10 °C89 %1009.1 hPa16.1 kmSW (220°)9.3 km/hMostly Cloudy
2:54 AM10.6 °C8.9 °C89 %1010.2 hPa16.1 kmWSW (250°)9.3 km/hOvercast
3:54 AM10.6 °C8.3 °C86 %1009.8 hPa16.1 kmSW (230°)13 km/hClear
4:54 AM11.1 °C7.8 °C80 %1009.8 hPa16.1 kmSW (230°)22.2 km/h35.2 km/hPartly Cloudy
5:15 AM11 °C8 °C82 %1009.8 hPa16.1 kmSW (220°)16.7 km/hMostly Cloudy
5:54 AM11.1 °C7.8 °C80 %1010.2 hPa16.1 kmSSW (210°)16.7 km/hOvercast
6:54 AM11 °C8 °C82 %1010.8 hPa16.1 kmSSW (210°)13 km/hOvercast
7:54 AM10.6 °C7.8 °C83 %1011.5 hPa16.1 kmSSW (200°)14.8 km/hMostly Cloudy
8:06 AM11 °C8 °C82 %1011.5 hPa16.1 kmSSW (210°)16.7 km/hMostly Cloudy
8:34 AM12 °C8 °C77 %1011.5 hPa16.1 kmSSW (200°)18.5 km/hScattered Clouds
8:54 AM11.7 °C7.8 °C77 %1011.5 hPa16.1 kmSSW (210°)13 km/hOvercast
9:54 AM12.2 °C7.8 °C75 %1011.2 hPa16.1 kmSSW (210°)14.8 km/hMostly Cloudy
10:54 AM12.8 °C7.8 °C72 %1010.5 hPa16.1 kmSouth (180°)11.1 km/hMostly Cloudy
11:54 AM15 °C8.3 °C64 %1009.5 hPa16.1 kmSouth (170°)11.1 km/hClear
12:54 PM17.2 °C8.3 °C56 %1008.8 hPa16.1 kmSouth (180°)11.1 km/hClear
1:54 PM17.2 °C7.8 °C54 %1008.5 hPa16.1 kmSSW (200°)24.1 km/h37 km/hMostly Cloudy
2:54 PM17.8 °C7.8 °C52 %1008.5 hPa16.1 kmSouth (190°)18.5 km/h29.6 km/hMostly Cloudy
3:54 PM17.2 °C7.2 °C52 %1007.8 hPa16.1 kmSouth (170°)16.7 km/hMostly Cloudy
4:54 PM16.7 °C7.2 °C53 %1008.1 hPa16.1 kmSouth (190°)14.8 km/hClear
5:54 PM15.6 °C7.2 °C57 %1008.5 hPa16.1 kmSSE (160°)11.1 km/hClear
6:54 PM14.4 °C7.8 °C65 %1008.8 hPa16.1 kmVariable11.1 km/hClear
7:54 PM13.9 °C8.3 °C69 %1008.8 hPa16.1 kmSouth (180°)14.8 km/hClear
8:54 PM13.9 °C8.3 °C69 %1008.8 hPa16.1 kmVariable9.3 km/hClear
9:54 PM13.9 °C8.3 °C69 %1009.1 hPa16.1 kmSSW (200°)7.4 km/hClear
10:54 PM14.4 °C8.3 °C67 %1009.5 hPa16.1 kmSW (220°)5.6 km/hClear
11:54 PM13.9 °C7.8 °C67 %1009.5 hPa16.1 kmSSW (210°)9.3 km/hClear
Hourly data recorded from KSUS, located 0 kilometers away from Hazelwood, Missouri







STORIES FROM OUR PARTNERS